Location: Asheville, NC
(35.6000°N, 82.5500°W)
Time: 00:27:23
(UTC-04:00)

Vanguard 1 Rocket - Pass Details

Date: 15 March 2018
Orbit: 653 x 4224 km, 34.3° (Epoch: 24 June)

Event Time Altitude Azimuth Distance (km) Brightness Sun altitude
Rises 23:40:43 0° 282° (WNW) 5,207 11.8 -46.5°
Reaches altitude 10° 23:43:30 10° 279° (W) 4,562 11.3 -46.9°
Enters shadow 23:54:55 60° 231° (SW) 3,289 9.9 -48.5°
Maximum altitude 23:57:17 63° 203° (SSW) 3,400 - -48.8°
Drops below altitude 10° 00:21:18 10° 129° (SE) 7,379 - -51.7°
Sets 00:27:26 0° 127° (SE) 8,461 - -52.3°
